Regional Weather Roundup
Issued by NWS

Home | Current Version | Previous Version | Graphics & Text | Print | Product List | Glossary On
Versions: 1 2 3 4 5 6 7 8 9 10 11 12 13 14 15 16 17 18 19 20 21 22 23 24 25 26 27 28 29 30 31 32 33 34 35 36 37 38 39 40 41 42 43 44 45 46 47 48 49 50
000
ASUS43 KOAX 311102
RWRNE

WEATHER ROUNDUP FOR NEBRASKA
NATIONAL WEATHER SERVICE OMAHA NE
500 AM CST SAT JAN 31 2015

NOTES: SATELLITE DATA IS BEING USED TO AUGMENT CLOUD COVER ABOVE
       12000 FEET.
       "FAIR" INDICATES FEW OR NO CLOUDS BELOW 12,000 FEET WITH NO
       SIGNIFICANT WEATHER AND/OR OBSTRUCTIONS TO VISIBILITY.

  * THESE STATIONS DO NOT REPORT WEATHER SUCH AS RAIN...SNOW OR FOG.

NEZ001>004-019>022-054>056-311200-
NEBRASKA PANHANDLE

CITY           SKY/WX    TMP DP  RH WIND       PRES   REMARKS
SCOTTSBLUFF    CLOUDY    32  27  81 W5        29.97F WCI  27
ALLIANCE       CLOUDY    29  26  89 N6        29.95F WCI  23
CHADRON        CLOUDY    27  24  89 W3        30.00F
SIDNEY         CLOUDY    33  27  78 N7        29.95F WCI  27
$$

NEZ057>060-069>072-079>082-311200-
SOUTHWEST NEBRASKA

CITY           SKY/WX    TMP DP  RH WIND       PRES   REMARKS
NORTH PLATTE   CLOUDY    34  31  88 SE6       30.01F WCI  29
IMPERIAL       CLOUDY    34  32  92 E3        29.97F
MCCOOK         CLOUDY    34  32  92 SE7       30.01F WCI  28
$$

NEZ005>010-023>029-035>040-094-311200-
NORTH CENTRAL NEBRASKA

CITY           SKY/WX    TMP DP  RH WIND       PRES   REMARKS
VALENTINE      CLOUDY    29  24  82 E5        30.02F WCI  24
BROKEN BOW     CLOUDY    35  32  88 S9        30.04F WCI  28
ORD            CLOUDY    35  31  85 S6        30.06F WCI  30
$$

NEZ041-046>049-061>064-073>077-083>087-311200-
SOUTH CENTRAL NEBRASKA

CITY           SKY/WX    TMP DP  RH WIND       PRES   REMARKS
GRAND ISLAND   LGT RAIN  34  32  92 S10       30.12F WCI  26
HASTINGS       LGT SNOW  33  31  92 S9        30.10F FOG     WCI  25
KEARNEY *      CLOUDY    34  30  86 S9        30.09S WCI  26
$$

NEZ011>018-030>034-042>045-311200-
NORTHEAST NEBRASKA

CITY           SKY/WX    TMP DP  RH WIND       PRES   REMARKS
NORFOLK        CLOUDY    36  32  85 S9        30.10F WCI  29
COLUMBUS *     CLOUDY    37  28  70 S10       30.14F WCI  30
TEKAMAH        CLOUDY    33  30  88 S10       30.16S WCI  25
$$

NEZ050>053-065>068-078-088>093-311200-
SOUTHEAST NEBRASKA

CITY           SKY/WX    TMP DP  RH WIND       PRES   REMARKS
LINCOLN        CLOUDY    37  33  85 S14       30.18F WCI  28
OMAHA EPPLEY   CLOUDY    34  28  79 SE8       30.19S WCI  27
FALLS CITY     LGT RAIN  36  34  92 S8        30.23F WCI  30
$$

NEZ044-045-051>053-067-311200-
OMAHA AREA

CITY           SKY/WX    TMP DP  RH WIND       PRES   REMARKS
OMAHA EPPLEY   CLOUDY    34  28  79 SE8       30.19S WCI  27
OFFUTT AFB     CLOUDY    33  28  81 E3        30.18F
$$


USA.gov is the U.S. government's official web portal to all federal, state and local government web resources and services.